Regional Weather Roundup
Issued by NWS Charleston, SC

Current Version | Previous Version | Text Only | Print | Product List | Glossary Off
Versions: 1 2 3 4 5 6 7 8 9 10 11 12 13 14 15 16 17 18 19 20 21 22 23 24 25 26 27 28 29 30 31 32 33 34 35 36 37 38 39 40 41 42 43 44 45 46 47 48 49 50

000
ASUS42 KCHS 280111
RWRCHS

REGIONAL WEATHER ROUNDUP
NATIONAL WEATHER SERVICE CHARLESTON SC
800 PM EST FRI FEB 27 2015

NOTE: "FAIR" INDICATES FEW OR NO CLOUDS BELOW 12,000 FEET WITH NO
SIGNIFICANT WEATHER AND/OR OBSTRUCTIONS TO VISIBILITY.

NOT ALL STATIONS ARE QUALITY CONTROLLED BY THE NATIONAL
WEATHER SERVICE. USE DATA WITH CAUTION...ESPECIALLY
DEWPOINT OBSERVATIONS.

SCZ027-030-031-034>040-042>050-280200-
...SOUTHEAST SOUTH CAROLINA...

CITY           SKY/WX    TMP DP  RH WIND       PRES   REMARKS
N CHARLESTON   MOCLDY    44  35  70 E5        30.42R
WATERFRONT PRK   N/A     45 N/A N/A NE8         N/A
MOUNT PLEASANT LGT RAIN  39  37  93 CALM      30.42R
PINOPOLIS        N/A     46  37  71 VRB2      30.33R
MONCKS CORNER  FAIR      43  37  81 CALM      30.41R
SUMMERVILLE    FAIR      43  37  81 E3        30.42R
BEAUFORT MCAS  MOCLDY    45  37  73 E5        30.41R
BEAUFORT ARPT  FAIR      45  37  76 CALM      30.40R
HILTON HEAD IS MOCLDY    45  37  76 N6        30.41R
WALTERBORO     MOCLDY    43  37  81 E6        30.41R
ALLENDALE      FAIR      46  37  71 CALM      30.38R

...SOUTHERN MIDLANDS AND PEE DEE...

CITY           SKY/WX    TMP DP  RH WIND       PRES   REMARKS
GEORGETOWN     NOT AVBL
KINGSTREE      NOT AVBL
ORANGEBURG     CLEAR     44  35  70 CALM      30.39R
BARNWELL       FAIR      45  37  76 E3        30.39R
AIKEN          FAIR      45  36  70 E5        30.41R
MANNING        FAIR      41  36  81 CALM      30.41R
COLUMBIA       PTCLDY    45  36  70 CALM      30.39R
SUMTER         PTCLDY    41  34  75 NE3       30.39R
FLORENCE       CLEAR     43  31  62 E6        30.41R
MYRTLE BEACH   CLEAR     43  36  75 E5        30.45R
N MYRTLE BEACH MOCLDY    40  35  83 CALM      30.43R

$$

GAZ063-065-086>088-099>101-113>116-118-119-134>141-150-280200-
...SOUTHEAST GEORGIA...

CITY           SKY/WX    TMP DP  RH WIND       PRES   REMARKS
SAVANNAH ARPT  MOCLDY    44  35  70 E7        30.40R
HUNTER AAF     MOCLDY    45  36  71 NE5       30.37R
FORT STEWART   CLOUDY    44  37  78 E2        30.37R
STATESBORO     MOCLDY    41  41 100 CALM      30.38R
SYLVANIA       PTCLDY    44  40  85 E3        30.39R
CLAXTON        FAIR      43  41  93 CALM      30.38R

...CSRA...CENTRAL AND FAR SOUTHEAST GEORGIA...

CITY           SKY/WX    TMP DP  RH WIND       PRES   REMARKS
THOMSON        CLEAR     44  42  93 CALM      30.42R
AUGUSTA-BUSH   PTCLDY    43  36  76 SE5       30.38R
AUGUSTA-DANIEL PTCLDY    51  32  48 N5        30.38R
SWAINSBORO     FAIR      46  36  66 CALM      30.38R
VIDALIA        MOCLDY    46  39  76 CALM      30.36R
EASTMAN        FAIR      44  42  91 CALM      30.39R
HAZLEHURST     FAIR      49  41  75 E5        30.35R
ALMA           CLOUDY    43  39  86 CALM      30.36R
WAYCROSS       CLOUDY    48  42  79 E6        30.36R
JESUP          FAIR      45  41  87 CALM      30.38R
BAXLEY         FAIR      45  43  93 CALM      30.36R
BRUNSWICK      CLOUDY    46  37  71 NE5       30.38R
SAINT SIMONS   CLOUDY    47  38  71 NE8       30.37R

$$

SCZ027-028-034-036>038-045-046-048>050-GAZ119-141-280200-
...LAKE AND SUPPLEMENTAL COASTAL OBSERVATIONS...

STATION/POSITION TIME  TEMP    WIND        PRES    WAVE   SWELL
                       AIR SEA DIR/SP/G            HT/PER HT/PER/DIR
                 (UTC) (F)     (DEG/KT/KT) (MB)    (FT/S) (FT/S/D)
UPR LAKE MARION  NOT AVBL
WINYAH BAY       2345   43     360/  1     1028.0
LAKE MURRAY      0000   47      CALM  /  1 1027.8R
ACE BASIN NERRS  NOT AVBL
FORT PULASKI     0006   47 49   40/  9/ 12 1029.2R
SAPELO ISLAND    0000   46      40/  7     1028.0R

$$

ANZ835-935-AMZ111-154-330-350-352-354-370-450-454-472-280200-
...C-MAN AND BUOY OBSERVATIONS...

STATION/POSITION TIME  TEMP    WIND        PRES    WAVE   SWELL
                       AIR SEA DIR/SP/G            HT/PER HT/PER/DIR
                 (UTC) (F)     (DEG/KT/KT) (MB)    (FT/S) (FT/S/D)
BUOY 41004       0050   52 66   30/ 17/ 23 1028.5R   5/ 6   2/ 8
BUOY 41008       0050   51 52   40/ 19/ 21 1027.7R   5/ 6   2/100/10
FOLLY BEACH CMAN 0100   47      50/ 11/ 13 1030.2R
CAPERS NEARSHORE NOT AVBL
FRIPP NEARSHORE  0000   48      60/ 14/ 17 1027.7R


STATION/POSITION TIME  TEMP    WIND        PRES    WAVE   SWELL
                       AIR SEA DIR/SP/G            HT/PER HT/PER/DIR
                 (UTC) (F)     (DEG/KT/KT) (MB)    (FT/S) (FT/S/D)
5E ST. MARYS GA  0051      53                N/A     6/ 6   2/100/11
FRYING PAN BUOY  0050   49 62   30/ 17/ 21 1030.1R   5/10   3/110/10
BUOY 41025       NOT AVBL
CAPE LOOKOUT NC  0000   43      40/ 15/ 17 1030.1R
BUOY 41002       0050   63 70   10/ 16/ 21 1026.2R  10/11   8/ 10/11
BUOY 41010       0020   67 72   60/ 19/ 23 1023.0R
ST AUGUSTINE FL  0100   53      10/ 23/ 24 1026.2R


$$


USA.gov is the U.S. government's official web portal to all federal, state and local government web resources and services.